FW5933 Weather Reports


time (UTC)temp
C
wind
direction
speed
KPH
gust
KPH
rain 1hr
cm
rain 24hr
cm
rain mn
cm
humidity
%
barometer
mb
20260906105706 22 312 0.0 0.0 0.00 0.00 0.00 98 1015.4
20260906105202 22 311 0.0 0.0 0.00 0.00 0.00 98 1015.2
20260906104701 22 310 0.0 0.0 0.00 0.00 0.00 98 1015.1
20260906104201 22 310 0.0 0.0 0.00 0.00 0.00 98 1015.1
20260906103658 22 310 0.0 0.0 0.00 0.00 0.00 98 1015.2
20260906103154 22 0 0.0 0.0 0.00 0.00 0.00 98 1014.9
20260906102649 22 35 0.0 0.0 0.00 0.00 0.00 97 1015.4
20260906102149 22 35 0.0 0.0 0.00 0.00 0.00 97 1015.2
20260906101648 22 43 0.0 0.0 0.00 0.00 0.00 97 1015.4
20260906101143 22 49 0.0 0.0 0.00 0.00 0.00 97 1014.8
20260906100639 22 5 0.0 0.0 0.00 0.00 0.00 98 1015.1
20260906100133 22 5 0.0 0.0 0.00 0.00 0.00 99 1015.3
20260906095628 22 3 0.0 0.0 0.00 0.00 0.00 99 1015.2
20260906095124 22 3 0.0 0.0 0.00 0.00 0.00 99 1015.5
20260906094622 22 239 0.0 0.0 0.00 0.00 0.00 99 1015.3
20260906094118 22 239 0.0 0.0 0.00 0.00 0.00 99 1015.2
20260906093614 22 239 0.0 0.0 0.00 0.00 0.00 99 1015.2
20260906093108 22 239 0.0 0.0 0.00 0.00 0.00 99 1015.2
20260906092603 22 239 0.0 0.0 0.00 0.00 0.00 99 1015.3
20260906092059 22 239 0.0 0.0 0.00 0.00 0.00 99 1015.3
20260906091554 22 239 0.0 0.0 0.00 0.00 0.00 99 1015.2
20260906091051 22 239 0.0 0.0 0.00 0.00 0.00 99 1015.3
20260906090551 22 239 0.0 0.0 0.00 0.00 0.00 99 1015.3
20260906090046 22 239 0.0 0.0 0.00 0.00 0.00 99 1015.3
20260906085544 22 239 0.0 0.0 0.00 0.00 0.00 99 1015.6
20260906085044 22 239 0.0 0.0 0.00 0.00 0.00 99 1015.3
20260906084539 22 239 0.0 0.0 0.00 0.00 0.00 99 1015.2
20260906084037 22 239 0.0 0.0 0.00 0.00 0.00 99 1015.4
20260906083534 22 239 0.0 0.0 0.00 0.00 0.00 99 1015.4
20260906083033 22 239 0.0 0.0 0.00 0.00 0.00 99 1015.3
20260906082528 22 239 0.0 0.0 0.00 0.00 0.00 99 1015.1
20260906082024 22 239 0.0 0.0 0.00 0.00 0.00 99 1014.9
20260906081520 22 239 0.0 0.0 0.00 0.00 0.00 99 1015.1
20260906081016 22 239 0.0 0.0 0.00 0.00 0.00 99 1014.8
20260906080512 22 239 0.0 0.0 0.00 0.00 0.00 99 1015.2
20260906080008 22 239 0.0 0.0 0.00 0.00 0.00 99 1014.8
20260906075502 22 239 0.0 0.0 0.00 0.00 0.00 99 1014.9
20260906074956 22 239 0.0 0.0 0.00 0.00 0.00 99 1015.3
20260906074451 22 239 0.0 0.0 0.00 0.00 0.00 99 1015.3
20260906073949 22 239 0.0 0.0 0.00 0.00 0.00 99 1015.1
20260906073444 22 239 0.0 0.0 0.00 0.00 0.00 99 1015.2
20260906072941 21 239 0.0 0.0 0.00 0.00 0.00 99 1015.4
20260906072436 21 239 0.0 0.0 0.00 0.00 0.00 99 1015.5
20260906071932 22 239 0.0 0.0 0.00 0.00 0.00 99 1015.4
20260906071427 22 239 0.0 0.0 0.00 0.00 0.00 99 1015.2
20260906070923 22 239 0.0 0.0 0.00 0.00 0.00 99 1015.2
20260906070419 22 239 0.0 0.0 0.00 0.00 0.00 99 1015.5
20260906065915 22 239 0.0 0.0 0.00 0.00 0.00 99 1015.3
20260906065409 22 239 0.0 0.0 0.00 0.00 0.00 99 1015.2
20260906064905 22 239 0.0 0.0 0.00 0.00 0.00 99 1015.4
20260906064401 22 239 0.0 0.0 0.00 0.00 0.00 99 1015.3
20260906063901 22 239 0.0 0.0 0.00 0.00 0.00 99 1015.2
20260906063356 22 239 0.0 0.0 0.00 0.00 0.00 99 1015.3
20260906062851 22 239 0.0 0.0 0.00 0.00 0.00 99 1015.5
20260906062350 22 239 0.0 0.0 0.00 0.00 0.00 99 1015.6
20260906061846 22 239 0.0 0.0 0.00 0.00 0.00 99 1015.6
20260906061342 22 239 0.0 0.0 0.00 0.00 0.00 99 1015.5
20260906060836 22 239 0.0 0.0 0.00 0.00 0.00 99 1015.7
20260906060334 22 239 0.0 0.0 0.00 0.00 0.00 99 1015.6
20260906055830 22 239 0.0 0.0 0.00 0.00 0.00 99 1015.7
20260906055325 22 239 0.0 0.0 0.00 0.00 0.00 99 1015.7
20260906054821 22 239 0.0 0.0 0.00 0.00 0.00 99 1015.8
20260906054315 22 239 0.0 0.0 0.00 0.00 0.00 99 1015.8
20260906053812 22 239 0.0 0.0 0.00 0.00 0.00 99 1016.0
20260906053307 22 239 0.0 0.0 0.00 0.00 0.00 99 1016.0
20260906052802 22 239 0.0 0.0 0.00 0.00 0.00 99 1016.2
20260906052259 22 239 0.0 0.0 0.00 0.00 0.00 99 1016.2
20260906051755 22 239 0.0 0.0 0.00 0.00 0.00 99 1016.4
20260906051255 22 239 0.0 0.0 0.00 0.00 0.00 99 1016.2
20260906050750 22 239 0.0 0.0 0.00 0.00 0.00 99 1016.3
20260906050246 22 239 0.0 0.0 0.00 0.00 0.00 99 1016.5
20260906045744 22 239 0.0 0.0 0.00 0.00 0.00 99 1016.3
20260906045239 22 239 0.0 0.0 0.00 0.00 0.00 99 1016.5
20260906044735 22 239 0.0 0.0 0.00 0.00 0.00 99 1016.4
20260906044230 22 239 0.0 0.0 0.00 0.00 0.00 99 1016.4
20260906043726 22 239 0.0 0.0 0.00 0.00 0.00 99 1016.3
20260906043222 22 239 0.0 0.0 0.00 0.00 0.00 99 1016.1
20260906042721 22 240 0.0 0.0 0.00 0.00 0.00 99 1016.1
20260906042220 22 240 0.0 0.0 0.00 0.00 0.00 99 1015.9
20260906041716 21 240 0.0 0.0 0.00 0.00 0.00 99 1016.2
20260906041211 21 240 0.0 0.0 0.00 0.00 0.00 99 1016.0
20260906040707 21 240 0.0 0.0 0.00 0.00 0.00 99 1016.1
20260906040201 22 240 0.0 0.0 0.00 0.00 0.00 99 1016.0
20260906035657 22 240 0.0 0.0 0.00 0.03 0.03 99 1016.1
20260906035153 22 240 0.0 0.0 0.00 0.03 0.03 99 1016.3
20260906034653 22 240 0.0 0.0 0.00 0.03 0.03 99 1016.3
20260906034148 22 240 0.0 0.0 0.00 0.03 0.03 99 1016.3
20260906033643 22 240 0.0 0.0 0.00 0.03 0.03 99 1016.5
20260906033138 22 240 0.0 0.0 0.00 0.03 0.03 99 1016.2
20260906032635 22 240 0.0 0.0 0.00 0.03 0.03 99 1016.4
20260906032134 22 240 0.0 0.0 0.00 0.03 0.03 99 1016.4
20260906031630 22 240 0.0 0.0 0.00 0.03 0.03 99 1016.4
20260906031125 22 240 0.0 0.0 0.00 0.03 0.03 99 1016.4
20260906030624 22 240 0.0 0.0 0.00 0.03 0.03 99 1016.6
20260906030120 22 240 0.0 0.0 0.00 0.03 0.03 99 1016.4
20260906025619 22 219 0.0 0.0 0.00 0.03 0.03 99 1016.4
20260906025118 22 219 0.0 0.0 0.00 0.03 0.03 99 1016.4
20260906024613 22 219 0.0 0.0 0.00 0.03 0.03 99 1016.5
20260906024107 22 219 0.0 0.0 0.00 0.03 0.03 99 1016.6
20260906023603 22 219 0.0 0.0 0.00 0.03 0.03 99 1016.6
20260906023057 22 219 0.0 0.0 0.00 0.03 0.03 99 1016.5
20260906022553 22 219 0.0 0.0 0.00 0.03 0.03 99 1016.7
20260906022048 22 219 0.0 0.0 0.00 0.03 0.03 99 1016.5
20260906021544 22 219 0.0 0.0 0.00 0.03 0.03 99 1016.9
20260906021042 22 219 0.0 0.0 0.00 0.03 0.03 99 1016.9
20260906020537 22 219 0.0 0.0 0.00 0.03 0.03 99 1016.7
20260906020037 22 219 0.0 0.0 0.00 0.03 0.03 99 1016.8
20260906015536 22 219 0.0 0.0 0.00 0.03 0.03 99 1016.8
20260906015036 22 219 0.0 0.0 0.00 0.03 0.03 99 1016.5
20260906014531 22 219 0.0 0.0 0.00 0.03 0.03 99 1016.8
20260906014026 22 219 0.0 0.0 0.00 0.03 0.03 99 1017.0
20260906013522 22 219 0.0 0.0 0.00 0.03 0.03 99 1016.6
20260906013017 22 219 0.0 0.0 0.00 0.03 0.03 99 1016.5
20260906012512 22 219 0.0 0.0 0.00 0.03 0.03 99 1016.3
20260906012012 22 219 0.0 0.0 0.00 0.03 0.03 99 1016.3
20260906011508 22 219 0.0 0.0 0.00 0.03 0.03 99 1016.5
20260906011002 22 219 0.0 0.0 0.00 0.03 0.03 99 1016.5
20260906010457 22 219 0.0 0.0 0.00 0.03 0.03 99 1016.1
20260906005954 22 123 0.0 0.0 0.00 0.03 0.03 99 1016.2
20260906005453 22 212 0.0 0.0 0.00 0.03 0.03 99 1016.1
20260906004951 22 256 0.0 0.0 0.00 0.03 0.03 99 1016.1
20260906004446 22 256 0.0 0.0 0.00 0.03 0.03 99 1016.0
20260906003941 22 256 0.0 0.0 0.00 0.03 0.03 99 1015.7
20260906003442 23 259 0.0 0.0 0.00 0.03 0.03 99 1015.5
20260906002937 23 259 0.0 0.0 0.00 0.03 0.03 99 1015.5
20260906002437 23 259 0.0 0.0 0.00 0.03 0.03 99 1015.4
20260906001932 23 258 0.0 0.0 0.00 0.03 0.03 99 1015.4
20260906001428 23 284 0.0 0.0 0.00 0.03 0.03 99 1014.9
20260906000923 23 24 0.0 0.0 0.00 0.03 0.03 99 1014.8
20260906000418 23 24 0.0 0.0 0.00 0.03 0.03 99 1014.5
20260905235913 23 24 0.0 0.0 0.00 0.03 0.03 99 1014.6
20260905235407 23 25 0.0 0.0 0.00 0.03 0.03 99 1014.7
20260905234902 23 25 0.0 0.0 0.00 0.03 0.03 99 1014.8
20260905234357 23 44 0.0 0.0 0.00 0.03 0.03 99 1015.1
20260905233852 23 45 0.0 0.0 0.00 0.03 0.03 99 1014.9
20260905233347 23 72 0.0 0.0 0.00 0.03 0.03 99 1015.3
20260905232847 23 69 0.0 0.0 0.00 0.03 0.03 99 1014.9
20260905232343 23 71 0.0 0.0 0.00 0.03 0.03 99 1015.1
20260905231838 23 71 0.0 0.0 0.00 0.03 0.03 98 1015.2
20260905231338 23 176 0.0 0.0 0.00 0.03 0.03 98 1015.4
20260905230836 23 77 0.0 0.0 0.00 0.03 0.03 98 1015.2
20260905230333 22 40 0.0 0.0 0.00 0.03 0.03 97 1014.9
20260905225832 22 72 0.0 0.0 0.00 0.03 0.03 97 1014.7
20260905225328 22 100 0.0 0.0 0.00 0.03 0.03 97 1014.6
20260905224828 22 124 0.0 0.0 0.00 0.03 0.03 97 1014.6
20260905224323 22 193 0.0 0.0 0.00 0.03 0.03 97 1014.6
20260905223818 22 311 0.0 0.0 0.00 0.03 0.03 97 1014.7
20260905223316 23 31 0.0 0.0 0.00 0.03 0.03 97 1015.1
20260905222811 22 48 0.0 0.0 0.00 0.03 0.03 97 1014.5
20260905222310 22 244 0.0 0.0 0.00 0.03 0.03 95 1014.6
20260905221806 22 202 1.6 1.6 0.00 0.03 0.03 95 1014.6
20260905221303 22 239 1.6 1.6 0.00 0.03 0.03 96 1014.8
20260905220758 22 188 0.0 0.0 0.00 0.03 0.03 95 1014.9
20260905220254 23 209 0.0 0.0 0.00 0.03 0.03 95 1014.8
20260905215753 23 50 0.0 0.0 0.13 0.03 0.03 92 1016.1
20260905215249 24 48 0.0 0.0 0.13 0.03 0.03 87 1016.3
20260905214744 25 34 1.6 1.6 0.00 0.00 0.00 82 1016.4
20260905214240 26 52 4.8 4.8 0.00 0.00 0.00 69 1016.5
20260905213735 26 27 1.6 3.2 0.00 0.00 0.00 63 1015.9
20260905213231 25 317 1.6 1.6 0.00 0.00 0.00 68 1015.4
20260905212726 25 99 1.6 3.2 0.00 0.00 0.00 70 1015.2
20260905212225 26 66 3.2 4.8 0.00 0.00 0.00 71 1014.9
20260905211719 28 43 6.4 9.7 0.00 0.00 0.00 63 1015.6
20260905211215 31 307 3.2 3.2 0.00 0.00 0.00 59 1014.8
20260905210711 37 245 4.8 8.0 0.00 0.00 0.00 49 1015.3
20260905210206 37 118 0.0 1.6 0.00 0.00 0.00 44 1014.4
20260905205705 37 44 0.0 0.0 0.00 0.00 0.00 44 1014.0
20260905205204 37 250 0.0 1.6 0.00 0.00 0.00 48 1013.9
20260905204659 37 19 0.0 0.0 0.00 0.00 0.00 49 1014.2
20260905204154 37 218 0.0 0.0 0.00 0.00 0.00 48 1014.1
20260905203649 37 209 1.6 1.6 0.00 0.00 0.00 47 1014.2
20260905203144 36 260 1.6 1.6 0.00 0.00 0.00 47 1014.2
20260905202639 37 241 3.2 4.8 0.00 0.00 0.00 45 1014.5
20260905202135 37 71 1.6 1.6 0.00 0.00 0.00 46 1014.2
20260905201630 37 30 0.0 0.0 0.00 0.00 0.00 45 1014.4
20260905201130 37 125 3.2 3.2 0.00 0.00 0.00 45 1014.6
20260905200626 37 152 0.0 1.6 0.00 0.00 0.00 47 1014.7
20260905200121 37 97 1.6 1.6 0.00 0.00 0.00 47 1014.6
20260905195619 36 237 0.0 1.6 0.00 0.00 0.00 48 1014.7
20260905195115 37 86 0.0 1.6 0.00 0.00 0.00 47 1014.7
20260905194615 37 24 0.0 0.0 0.00 0.00 0.00 50 1014.4
20260905194114 37 59 0.0 0.0 0.00 0.00 0.00 50 1014.5
20260905193609 37 176 0.0 1.6 0.00 0.00 0.00 48 1014.8
20260905193104 37 266 4.8 4.8 0.00 0.00 0.00 50 1014.8
20260905192600 37 183 1.6 1.6 0.00 0.00 0.00 49 1015.2
20260905192055 37 208 0.0 1.6 0.00 0.00 0.00 48 1015.2
20260905191554 37 110 0.0 0.0 0.00 0.00 0.00 47 1015.2
20260905191048 37 65 1.6 1.6 0.00 0.00 0.00 47 1015.3
20260905190546 37 253 1.6 3.2 0.00 0.00 0.00 47 1015.3
20260905190045 37 210 1.6 1.6 0.00 0.00 0.00 46 1015.2
20260905185545 37 189 1.6 1.6 0.00 0.00 0.00 45 1015.3
20260905185044 38 210 1.6 3.2 0.00 0.00 0.00 45 1015.3
20260905184539 37 38 0.0 1.6 0.00 0.00 0.00 46 1015.3
20260905184038 37 244 0.0 0.0 0.00 0.00 0.00 48 1015.4
20260905183537 37 62 0.0 0.0 0.00 0.00 0.00 46 1015.6
20260905183033 36 67 0.0 1.6 0.00 0.00 0.00 49 1015.6
20260905182527 36 52 0.0 0.0 0.00 0.00 0.00 50 1015.5
20260905182027 36 189 1.6 1.6 0.00 0.00 0.00 51 1015.5
20260905181522 37 164 1.6 1.6 0.00 0.00 0.00 51 1015.8
20260905181021 37 65 0.0 0.0 0.00 0.00 0.00 50 1015.7
20260905180516 36 33 0.0 0.0 0.00 0.00 0.00 48 1015.7
20260905180011 36 34 0.0 1.6 0.00 0.00 0.00 50 1016.1
20260905175510 35 43 1.6 1.6 0.00 0.00 0.00 51 1015.9
20260905175006 34 272 1.6 1.6 0.00 0.00 0.00 55 1015.9
20260905174501 35 237 0.0 0.0 0.00 0.00 0.00 54 1016.3
20260905173957 35 333 0.0 0.0 0.00 0.00 0.00 53 1016.1
20260905173453 35 54 1.6 1.6 0.00 0.00 0.00 53 1016.2
20260905172948 35 45 0.0 0.0 0.00 0.00 0.00 56 1016.3
20260905172446 35 258 0.0 1.6 0.00 0.00 0.00 53 1016.5
20260905171942 35 268 1.6 3.2 0.00 0.00 0.00 54 1016.4
20260905171439 35 246 0.0 0.0 0.00 0.00 0.00 55 1016.5
20260905170935 35 30 0.0 0.0 0.00 0.00 0.00 55 1016.6
20260905170431 34 243 0.0 0.0 0.00 0.00 0.00 60 1016.8
20260905165930 35 218 0.0 0.0 0.00 0.00 0.00 57 1016.7
20260905165425 35 84 0.0 1.6 0.00 0.00 0.00 55 1016.7
20260905164920 35 37 0.0 0.0 0.00 0.00 0.00 58 1016.8
20260905164414 34 219 1.6 3.2 0.00 0.00 0.00 60 1016.8
20260905163909 34 73 0.0 0.0 0.00 0.00 0.00 59 1016.9
20260905163406 34 215 1.6 3.2 0.00 0.00 0.00 59 1017.1
20260905162902 34 157 3.2 3.2 0.00 0.00 0.00 60 1017.3
20260905162356 33 49 0.0 0.0 0.00 0.00 0.00 61 1017.3
20260905161851 33 332 0.0 0.0 0.00 0.00 0.00 62 1017.4
20260905161350 33 118 1.6 1.6 0.00 0.00 0.00 62 1017.4
20260905160848 33 245 0.0 0.0 0.00 0.00 0.00 63 1017.3
20260905160343 33 33 0.0 0.0 0.00 0.00 0.00 64 1017.4
20260905155837 32 37 0.0 0.0 0.00 0.00 0.00 63 1017.4
20260905155331 32 268 0.0 0.0 0.00 0.00 0.00 65 1017.4
20260905154830 32 133 0.0 0.0 0.00 0.00 0.00 65 1017.6
20260905154326 32 63 3.2 4.8 0.00 0.00 0.00 65 1017.6
20260905153821 32 73 0.0 0.0 0.00 0.00 0.00 65 1017.6
20260905153318 32 277 0.0 0.0 0.00 0.00 0.00 66 1017.7
20260905152818 32 168 0.0 1.6 0.00 0.00 0.00 67 1017.5
20260905152316 31 183 0.0 0.0 0.00 0.00 0.00 67 1017.6
20260905151812 31 144 1.6 3.2 0.00 0.00 0.00 68 1017.7
20260905151307 31 72 0.0 0.0 0.00 0.00 0.00 68 1017.8
20260905150802 31 205 0.0 0.0 0.00 0.00 0.00 69 1017.8
20260905150302 30 70 0.0 0.0 0.00 0.00 0.00 72 1018.0
20260905145759 30 205 0.0 0.0 0.00 0.00 0.00 71 1017.9
20260905145253 30 196 0.0 0.0 0.00 0.00 0.00 72 1018.0
20260905144752 30 158 3.2 3.2 0.00 0.00 0.00 72 1018.0
20260905144248 30 175 0.0 0.0 0.00 0.00 0.00 72 1017.9
20260905143746 30 43 0.0 0.0 0.00 0.00 0.00 73 1018.3
20260905143241 29 48 0.0 0.0 0.00 0.00 0.00 74 1018.0
20260905142739 29 195 1.6 3.2 0.00 0.00 0.00 74 1018.0
20260905142234 29 130 1.6 1.6 0.00 0.00 0.00 74 1018.3
20260905141730 28 50 1.6 1.6 0.00 0.00 0.00 74 1018.1
20260905141226 28 55 0.0 0.0 0.00 0.00 0.00 75 1018.4
20260905140721 28 39 0.0 0.0 0.00 0.00 0.00 75 1018.3
20260905140220 28 59 0.0 0.0 0.00 0.00 0.00 77 1017.9
20260905135715 28 81 0.0 0.0 0.00 0.00 0.00 77 1018.1
20260905135211 28 124 0.0 1.6 0.00 0.00 0.00 77 1018.4
20260905134710 28 56 0.0 0.0 0.00 0.00 0.00 78 1017.9
20260905134210 27 43 0.0 0.0 0.00 0.00 0.00 79 1018.1
20260905133705 27 324 0.0 0.0 0.00 0.00 0.00 82 1018.1
20260905133200 27 59 0.0 0.0 0.00 0.00 0.00 84 1018.5
20260905132659 26 40 0.0 0.0 0.00 0.00 0.00 85 1018.5
20260905132154 26 148 0.0 0.0 0.00 0.00 0.00 86 1018.4
20260905131650 26 49 0.0 0.0 0.00 0.00 0.00 87 1018.4
20260905131150 26 232 0.0 0.0 0.00 0.00 0.00 88 1018.7
20260905130645 26 233 0.0 0.0 0.00 0.00 0.00 89 1018.6
20260905130144 25 80 0.0 0.0 0.00 0.00 0.00 90 1018.6
20260905125638 25 178 0.0 0.0 0.00 0.00 0.00 90 1018.5
20260905125134 25 35 0.0 0.0 0.00 0.00 0.00 92 1018.5
20260905124630 24 230 0.0 0.0 0.00 0.00 0.00 96 1018.1
20260905124126 24 230 0.0 0.0 0.00 0.00 0.00 98 1018.4
20260905123621 24 252 0.0 0.0 0.00 0.00 0.00 99 1018.1
20260905123119 23 252 0.0 0.0 0.00 0.00 0.00 99 1018.4
20260905122613 23 252 0.0 0.0 0.00 0.00 0.00 99 1018.6
20260905122113 23 252 0.0 0.0 0.00 0.00 0.00 99 1018.1
20260905121608 23 252 0.0 0.0 0.00 0.00 0.00 99 1018.3
20260905121103 23 252 0.0 0.0 0.00 0.00 0.00 99 1018.1
20260905120602 23 252 0.0 0.0 0.00 0.00 0.00 99 1018.1
20260905120057 23 252 0.0 0.0 0.00 0.00 0.00 99 1018.1
20260905115556 23 252 0.0 0.0 0.00 0.00 0.00 99 1018.1
20260905115051 22 252 0.0 0.0 0.00 0.00 0.00 99 1017.9
20260905114550 22 252 0.0 0.0 0.00 0.00 0.00 98 1018.0
20260905114049 22 252 0.0 0.0 0.00 0.00 0.00 98 1017.9
20260905113544 22 252 0.0 0.0 0.00 0.00 0.00 98 1017.8
20260905113039 22 252 0.0 0.0 0.00 0.00 0.00 98 1017.6
20260905112535 22 244 0.0 0.0 0.00 0.00 0.00 98 1017.7
20260905112030 22 244 0.0 0.0 0.00 0.00 0.00 98 1017.8
20260905111525 22 244 0.0 0.0 0.00 0.00 0.00 98 1017.5
20260905111024 22 244 0.0 0.0 0.00 0.00 0.00 98 1017.7
20260905110523 22 244 0.0 0.0 0.00 0.00 0.00 98 1017.6